Regional Weather Roundup
Issued by NWS

Home | Current Version | Previous Version | Text Only | Print | Product List | Glossary Off
Versions: 1 2 3 4 5 6 7 8 9 10 11 12 13 14 15 16 17 18 19 20 21 22 23 24 25 26 27 28 29 30 31 32 33 34 35 36 37 38 39 40 41 42 43 44 45 46 47 48 49 50

000
ASUS43 KBIS 242020
RWRND

NORTH DAKOTA REGIONAL WEATHER ROUNDUP
NATIONAL WEATHER SERVICE BISMARCK ND
300 PM CDT SUN MAY 24 2015

NOTE: "FAIR" INDICATES FEW OR NO CLOUDS BELOW 12,000 FEET WITH NO
SIGNIFICANT WEATHER AND/OR OBSTRUCTIONS TO VISIBILITY.


NDZ001>003-009>011-017-242100-
NORTHWEST NORTH DAKOTA

CITY           SKY/WX    TMP DP  RH WIND       PRES   REMARKS
WILLISTON      SUNNY     76  39  26 SE18G28   29.97F
MINOT          MOSUNNY   73  42  32 NE13      29.97F
MINOT AFB      MOSUNNY   76  43  31 E13       29.96F
$$

NDZ018>021-031>035-040>046-242100-
SOUTHWEST NORTH DAKOTA

CITY           SKY/WX    TMP DP  RH WIND       PRES   REMARKS
BISMARCK       CLOUDY    67  50  54 E13       29.97F
DICKINSON      CLOUDY    64  49  57 E10G20    29.96F
GARRISON         N/A     71  49  45 SE15      29.97F
HETTINGER ARPT CLOUDY    59  49  69 E16       29.98F
$$

NDZ004>008-012>016-024-026-027-054-242100-
NORTHEAST NORTH DAKOTA

CITY           SKY/WX    TMP DP  RH WIND       PRES   REMARKS
GRAND FORKS    CLOUDY    74  48  39 SE9       29.96F
GRND FRKS AFB  CLOUDY    74  48  40 SE9       29.97F
DEVILS LAKE    CLOUDY    72  48  43 SE13      29.97F
$$

NDZ022-023-025-028>030-036>039-047>053-242100-
SOUTHEAST NORTH DAKOTA

CITY           SKY/WX    TMP DP  RH WIND       PRES   REMARKS
FARGO          CLOUDY    69  51  52 E16       29.94F
JAMESTOWN      CLOUDY    69  48  47 E13       29.95F
$$



USA.gov is the U.S. government's official web portal to all federal, state and local government web resources and services.